Location: Newark
(57.4820°N, 4.1923°W)
Time: 04:27:37
(UTC+00:00)

ISS - Visible Passes

Search period start: 19 September 2019 00:00
Search period end: 29 September 2019 00:00
Orbit: 411 x 421 km, 51.6° (Epoch: 19 September)

Date Brightness Start Highest point End Pass type
(mag) Time Alt. Az. Time Alt. Az. Time Alt. Az.
21 Sep -1.6 20:12:20 10° SSW 20:13:13 14° S 20:13:13 14° S visible
22 Sep -1.7 19:24:42 10° S 19:26:16 13° SSE 19:26:56 12° SE visible
22 Sep -1.2 20:59:24 10° SW 20:59:51 13° SW 20:59:51 13° SW visible
23 Sep -2.3 20:11:13 10° SW 20:13:26 22° S 20:13:26 22° S visible
24 Sep -2.1 19:23:08 10° SSW 19:25:36 19° SSE 19:26:56 16° SE visible
24 Sep -1.5 20:58:47 10° WSW 20:59:49 17° SW 20:59:49 17° SW visible
25 Sep -2.6 20:10:27 10° SW 20:13:13 28° S 20:13:13 28° S visible
26 Sep -2.5 19:22:09 10° SW 19:25:00 26° SSE 19:26:34 18° SE visible
26 Sep -1.5 20:58:17 10° WSW 20:59:28 18° SW 20:59:28 18° SW visible
27 Sep -2.6 20:09:51 10° WSW 20:12:45 29° S 20:12:45 29° S visible
28 Sep -2.6 19:21:27 10° WSW 19:24:24 30° S 19:26:02 19° SE visible
28 Sep -1.3 20:57:53 10° WSW 20:58:55 16° WSW 20:58:55 16° WSW visible
